Time,TemperatureF,DewpointF,PressureIn,WindDirection,WindDirectionDegrees,WindSpeedMPH,WindSpeedGustMPH,Humidity,HourlyPrecipIn,Conditions,Clouds,dailyrainin,SoftwareType,DateUTC
2013-03-22 00:01:00,69.6,67.5,29.67,South,181,8.0,23.0,93,0.00,,,0.00,Wunderground v.1.15,2013-03-22 06:01:00,
2013-03-22 00:06:00,69.5,67.4,29.67,South,181,7.0,23.0,93,0.00,,,0.00,Wunderground v.1.15,2013-03-22 06:06:00,
2013-03-22 00:11:00,69.5,67.4,29.66,South,181,7.0,16.0,93,0.00,,,0.00,Wunderground v.1.15,2013-03-22 06:11:00,
2013-03-22 00:16:00,69.4,67.3,29.66,South,181,6.0,16.0,93,0.00,,,0.00,Wunderground v.1.15,2013-03-22 06:16:00,
2013-03-22 00:26:00,69.3,67.2,29.66,South,181,7.0,16.0,93,0.00,,,0.00,Wunderground v.1.15,2013-03-22 06:26:00,
2013-03-22 00:31:00,69.3,67.2,29.65,South,181,7.0,16.0,93,0.00,,,0.00,Wunderground v.1.15,2013-03-22 06:31:00,
2013-03-22 00:36:00,69.2,67.4,29.65,South,181,7.0,16.0,94,0.00,,,0.00,Wunderground v.1.15,2013-03-22 06:36:00,
2013-03-22 00:41:00,69.2,67.4,29.65,SE,126,6.0,16.0,94,0.00,,,0.00,Wunderground v.1.15,2013-03-22 06:41:00,
2013-03-22 00:46:00,69.1,67.3,29.65,SE,135,6.0,16.0,94,0.00,,,0.00,Wunderground v.1.15,2013-03-22 06:46:00,
2013-03-22 00:51:00,69.1,67.3,29.65,SSE,167,8.0,8.0,94,0.00,,,0.00,Wunderground v.1.15,2013-03-22 06:51:00,
2013-03-22 00:56:00,69.1,67.3,29.64,SSE,160,9.0,10.0,94,0.00,,,0.00,Wunderground v.1.15,2013-03-22 06:56:00,
2013-03-22 01:01:00,69.1,67.3,29.64,SE,142,9.0,16.0,94,0.00,,,0.00,Wunderground v.1.15,2013-03-22 07:01:00,
2013-03-22 01:06:00,69.1,67.3,29.64,SE,133,10.0,17.0,94,0.00,,,0.00,Wunderground v.1.15,2013-03-22 07:06:00,
2013-03-22 01:16:00,69.1,67.3,29.64,ESE,114,11.0,13.0,94,0.00,,,0.00,Wunderground v.1.15,2013-03-22 07:16:00,
2013-03-22 01:21:00,69.1,67.3,29.64,SE,137,12.0,17.0,94,0.00,,,0.00,Wunderground v.1.15,2013-03-22 07:21:00,
2013-03-22 01:26:00,69.1,67.6,29.63,SSE,153,12.0,17.0,95,0.00,,,0.00,Wunderground v.1.15,2013-03-22 07:26:00,
2013-03-22 01:31:00,69.1,67.6,29.63,ESE,123,11.0,11.0,95,0.00,,,0.00,Wunderground v.1.15,2013-03-22 07:31:00,
2013-03-22 01:36:00,69.1,67.6,29.63,SSE,154,11.0,15.0,95,0.00,,,0.00,Wunderground v.1.15,2013-03-22 07:36:00,
2013-03-22 01:41:00,69.2,67.7,29.63,SE,139,12.0,17.0,95,0.00,,,0.00,Wunderground v.1.15,2013-03-22 07:41:00,
2013-03-22 01:46:00,69.2,67.7,29.63,South,169,11.0,17.0,95,0.00,,,0.00,Wunderground v.1.15,2013-03-22 07:46:00,
2013-03-22 01:51:00,69.2,67.7,29.62,SSE,154,11.0,17.0,95,0.00,,,0.00,Wunderground v.1.15,2013-03-22 07:51:00,
2013-03-22 01:56:00,69.1,67.6,29.62,SE,145,12.0,17.0,95,0.00,,,0.00,Wunderground v.1.15,2013-03-22 07:56:00,
2013-03-22 02:01:00,69.2,67.7,29.62,SE,143,11.0,11.0,95,0.00,,,0.00,Wunderground v.1.15,2013-03-22 08:01:00,
2013-03-22 02:06:00,69.2,67.7,29.62,SSE,148,11.0,13.0,95,0.00,,,0.00,Wunderground v.1.15,2013-03-22 08:06:00,
2013-03-22 02:11:00,69.2,67.7,29.62,SSE,156,11.0,20.0,95,0.00,,,0.00,Wunderground v.1.15,2013-03-22 08:11:00,
2013-03-22 02:16:00,69.2,67.7,29.62,South,172,11.0,20.0,95,0.00,,,0.00,Wunderground v.1.15,2013-03-22 08:16:00,
2013-03-22 02:21:00,69.2,67.7,29.61,South,174,10.0,20.0,95,0.00,,,0.00,Wunderground v.1.15,2013-03-22 08:21:00,
2013-03-22 02:26:00,69.2,67.7,29.61,ESE,111,10.0,20.0,95,0.00,,,0.00,Wunderground v.1.15,2013-03-22 08:26:00,
2013-03-22 02:31:00,69.2,67.7,29.61,SE,146,10.0,20.0,95,0.00,,,0.00,Wunderground v.1.15,2013-03-22 08:31:00,
2013-03-22 02:36:00,69.1,67.6,29.61,SSE,162,11.0,20.0,95,0.00,,,0.00,Wunderground v.1.15,2013-03-22 08:36:00,
2013-03-22 02:41:00,69.2,67.7,29.61,SSE,153,11.0,20.0,95,0.00,,,0.00,Wunderground v.1.15,2013-03-22 08:41:00,
2013-03-22 02:46:00,69.2,67.7,29.61,South,173,10.0,20.0,95,0.00,,,0.00,Wunderground v.1.15,2013-03-22 08:46:00,
2013-03-22 02:51:00,69.1,67.6,29.60,SSE,157,10.0,20.0,95,0.00,,,0.00,Wunderground v.1.15,2013-03-22 08:51:00,
2013-03-22 02:56:00,69.1,67.6,29.61,South,188,10.0,20.0,95,0.00,,,0.00,Wunderground v.1.15,2013-03-22 08:56:00,
2013-03-22 03:01:00,69.1,67.6,29.60,South,188,9.0,20.0,95,0.00,,,0.00,Wunderground v.1.15,2013-03-22 09:01:00,
2013-03-22 03:06:00,69.1,67.6,29.60,South,188,9.0,20.0,95,0.00,,,0.00,Wunderground v.1.15,2013-03-22 09:06:00,
2013-03-22 03:11:00,69.1,67.6,29.61,South,188,9.0,18.0,95,0.00,,,0.00,Wunderground v.1.15,2013-03-22 09:11:00,
2013-03-22 03:16:00,69.1,67.6,29.60,SW,236,8.0,18.0,95,0.00,,,0.00,Wunderground v.1.15,2013-03-22 09:16:00,
2013-03-22 03:21:00,69.1,67.6,29.60,South,188,8.0,8.0,95,0.00,,,0.00,Wunderground v.1.15,2013-03-22 09:21:00,
2013-03-22 03:26:00,69.2,67.7,29.60,South,188,7.0,18.0,95,0.00,,,0.00,Wunderground v.1.15,2013-03-22 09:26:00,
2013-03-22 03:31:00,69.2,67.7,29.61,South,188,7.0,18.0,95,0.00,,,0.00,Wunderground v.1.15,2013-03-22 09:31:00,
2013-03-22 03:36:00,69.2,67.7,29.61,South,187,7.0,18.0,95,0.00,,,0.00,Wunderground v.1.15,2013-03-22 09:36:00,
2013-03-22 03:46:00,69.3,67.8,29.61,SW,217,8.0,18.0,95,0.00,,,0.00,Wunderground v.1.15,2013-03-22 09:46:00,
2013-03-22 03:51:00,69.3,67.8,29.61,SSW,212,7.0,18.0,95,0.00,,,0.00,Wunderground v.1.15,2013-03-22 09:51:00,
2013-03-22 03:56:00,69.3,67.8,29.61,South,187,8.0,18.0,95,0.00,,,0.00,Wunderground v.1.15,2013-03-22 09:56:00,
2013-03-22 04:06:00,69.3,67.8,29.61,South,187,9.0,9.0,95,0.00,,,0.00,Wunderground v.1.15,2013-03-22 10:06:00,
2013-03-22 04:16:00,69.4,67.9,29.62,SSW,203,9.0,16.0,95,0.00,,,0.00,Wunderground v.1.15,2013-03-22 10:16:00,
2013-03-22 04:21:00,69.4,67.9,29.62,South,191,9.0,16.0,95,0.00,,,0.00,Wunderground v.1.15,2013-03-22 10:21:00,
2013-03-22 04:26:00,69.3,67.8,29.62,SSW,197,8.0,16.0,95,0.00,,,0.00,Wunderground v.1.15,2013-03-22 10:26:00,
2013-03-22 04:31:00,69.3,67.8,29.62,South,190,8.0,16.0,95,0.00,,,0.00,Wunderground v.1.15,2013-03-22 10:31:00,
2013-03-22 04:36:00,69.3,67.8,29.62,South,187,9.0,16.0,95,0.00,,,0.00,Wunderground v.1.15,2013-03-22 10:36:00,
2013-03-22 04:41:00,69.4,67.9,29.62,South,188,8.0,16.0,95,0.00,,,0.00,Wunderground v.1.15,2013-03-22 10:41:00,
2013-03-22 04:46:00,69.4,67.9,29.62,SSW,194,7.0,16.0,95,0.00,,,0.00,Wunderground v.1.15,2013-03-22 10:46:00,
2013-03-22 04:51:00,69.4,67.9,29.63,South,187,8.0,16.0,95,0.00,,,0.00,Wunderground v.1.15,2013-03-22 10:51:00,
2013-03-22 04:56:00,69.3,67.8,29.63,South,187,8.0,16.0,95,0.00,,,0.00,Wunderground v.1.15,2013-03-22 10:56:00,
2013-03-22 05:01:00,69.4,67.9,29.63,South,187,8.0,8.0,95,0.00,,,0.00,Wunderground v.1.15,2013-03-22 11:01:00,
2013-03-22 05:11:00,69.4,67.9,29.63,South,188,6.0,12.0,95,0.00,,,0.00,Wunderground v.1.15,2013-03-22 11:11:00,
2013-03-22 05:16:00,69.4,67.9,29.64,South,190,6.0,12.0,95,0.00,,,0.00,Wunderground v.1.15,2013-03-22 11:16:00,
2013-03-22 05:21:00,69.4,67.9,29.64,South,172,5.0,12.0,95,0.00,,,0.00,Wunderground v.1.15,2013-03-22 11:21:00,
2013-03-22 05:26:00,69.4,67.9,29.64,SSE,165,5.0,12.0,95,0.00,,,0.00,Wunderground v.1.15,2013-03-22 11:26:00,
2013-03-22 05:31:00,69.3,67.8,29.64,South,172,6.0,12.0,95,0.00,,,0.00,Wunderground v.1.15,2013-03-22 11:31:00,
2013-03-22 05:36:00,69.3,67.8,29.64,South,169,6.0,12.0,95,0.00,,,0.00,Wunderground v.1.15,2013-03-22 11:36:00,
2013-03-22 05:41:00,69.3,67.8,29.64,SSE,166,6.0,12.0,95,0.00,,,0.00,Wunderground v.1.15,2013-03-22 11:41:00,
2013-03-22 05:51:00,69.4,67.9,29.64,South,169,5.0,12.0,95,0.00,,,0.00,Wunderground v.1.15,2013-03-22 11:51:00,
2013-03-22 05:56:00,69.4,67.9,29.65,South,172,4.0,12.0,95,0.00,,,0.00,Wunderground v.1.15,2013-03-22 11:56:00,
2013-03-22 06:01:00,69.3,67.8,29.65,South,172,4.0,12.0,95,0.00,,,0.00,Wunderground v.1.15,2013-03-22 12:01:00,
2013-03-22 06:06:00,69.4,67.9,29.65,South,172,4.0,12.0,95,0.00,,,0.00,Wunderground v.1.15,2013-03-22 12:06:00,
2013-03-22 06:16:00,69.4,67.9,29.65,South,172,3.0,5.0,95,0.00,,,0.00,Wunderground v.1.15,2013-03-22 12:16:00,
2013-03-22 06:21:00,69.5,68.0,29.65,SE,135,3.0,3.0,95,0.00,,,0.00,Wunderground v.1.15,2013-03-22 12:21:00,
2013-03-22 06:26:00,69.5,68.0,29.65,SE,144,4.0,4.0,95,0.00,,,0.00,Wunderground v.1.15,2013-03-22 12:26:00,
2013-03-22 06:31:00,69.5,68.0,29.65,SE,132,4.0,4.0,95,0.00,,,0.00,Wunderground v.1.15,2013-03-22 12:31:00,
2013-03-22 06:36:00,69.5,68.0,29.65,SSE,162,4.0,6.0,95,0.00,,,0.00,Wunderground v.1.15,2013-03-22 12:36:00,
2013-03-22 06:41:00,69.4,67.9,29.65,SSE,156,3.0,8.0,95,0.00,,,0.00,Wunderground v.1.15,2013-03-22 12:41:00,
2013-03-22 06:46:00,69.4,67.9,29.66,SSE,148,3.0,8.0,95,0.00,,,0.00,Wunderground v.1.15,2013-03-22 12:46:00,
2013-03-22 06:51:00,69.3,67.8,29.66,South,172,3.0,8.0,95,0.00,,,0.00,Wunderground v.1.15,2013-03-22 12:51:00,
2013-03-22 06:56:00,69.3,67.8,29.66,South,172,3.0,8.0,95,0.00,,,0.00,Wunderground v.1.15,2013-03-22 12:56:00,
2013-03-22 07:01:00,69.3,67.8,29.66,SSE,154,2.0,8.0,95,0.00,,,0.00,Wunderground v.1.15,2013-03-22 13:01:00,
2013-03-22 07:06:00,69.3,67.8,29.67,SE,125,2.0,8.0,95,0.00,,,0.00,Wunderground v.1.15,2013-03-22 13:06:00,
2013-03-22 07:11:00,69.3,67.8,29.67,SE,136,2.0,2.0,95,0.00,,,0.00,Wunderground v.1.15,2013-03-22 13:11:00,
2013-03-22 07:16:00,69.3,67.8,29.67,SSE,156,2.0,4.0,95,0.00,,,0.00,Wunderground v.1.15,2013-03-22 13:16:00,
2013-03-22 07:21:00,69.3,67.8,29.67,SE,131,2.0,7.0,95,0.00,,,0.00,Wunderground v.1.15,2013-03-22 13:21:00,
2013-03-22 07:26:00,69.3,67.8,29.67,SSE,162,3.0,7.0,95,0.00,,,0.00,Wunderground v.1.15,2013-03-22 13:26:00,
2013-03-22 07:31:00,69.4,67.9,29.67,South,172,3.0,7.0,95,0.00,,,0.00,Wunderground v.1.15,2013-03-22 13:31:00,
2013-03-22 07:36:00,69.3,67.8,29.67,SE,126,3.0,7.0,95,0.00,,,0.00,Wunderground v.1.15,2013-03-22 13:36:00,
2013-03-22 07:41:00,69.2,67.7,29.67,SE,137,5.0,7.0,95,0.00,,,0.00,Wunderground v.1.15,2013-03-22 13:41:00,
2013-03-22 07:51:00,69.1,67.6,29.68,SE,132,5.0,7.0,95,0.00,,,0.00,Wunderground v.1.15,2013-03-22 13:51:00,
2013-03-22 07:56:00,69.1,67.6,29.68,SSE,149,5.0,7.0,95,0.00,,,0.00,Wunderground v.1.15,2013-03-22 13:56:00,
2013-03-22 08:01:00,69.2,67.7,29.68,SSE,156,5.0,7.0,95,0.00,,,0.00,Wunderground v.1.15,2013-03-22 14:01:00,
2013-03-22 08:06:00,69.2,67.7,29.68,SSE,159,5.0,10.0,95,0.00,,,0.00,Wunderground v.1.15,2013-03-22 14:06:00,
2013-03-22 08:11:00,69.2,67.7,29.68,SSE,156,5.0,5.0,95,0.00,,,0.00,Wunderground v.1.15,2013-03-22 14:11:00,
2013-03-22 08:16:00,69.3,67.8,29.68,SE,146,5.0,6.0,95,0.00,,,0.00,Wunderground v.1.15,2013-03-22 14:16:00,
2013-03-22 08:21:00,69.3,67.8,29.69,ESE,120,6.0,6.0,95,0.00,,,0.00,Wunderground v.1.15,2013-03-22 14:21:00,
2013-03-22 08:26:00,69.3,67.8,29.69,South,172,6.0,7.0,95,0.00,,,0.00,Wunderground v.1.15,2013-03-22 14:26:00,
2013-03-22 08:31:00,69.3,67.8,29.69,SSE,149,6.0,10.0,95,0.00,,,0.00,Wunderground v.1.15,2013-03-22 14:31:00,
2013-03-22 08:36:00,69.4,67.9,29.69,SSE,162,7.0,10.0,95,0.00,,,0.00,Wunderground v.1.15,2013-03-22 14:36:00,
2013-03-22 08:41:00,69.4,67.9,29.69,SE,146,7.0,10.0,95,0.00,,,0.00,Wunderground v.1.15,2013-03-22 14:41:00,
2013-03-22 08:46:00,69.5,68.0,29.69,SSE,148,7.0,10.0,95,0.00,,,0.00,Wunderground v.1.15,2013-03-22 14:46:00,
2013-03-22 08:56:00,69.6,68.1,29.69,SE,142,6.0,10.0,95,0.00,,,0.00,Wunderground v.1.15,2013-03-22 14:56:00,
2013-03-22 09:01:00,69.6,68.1,29.69,SE,125,7.0,7.0,95,0.00,,,0.00,Wunderground v.1.15,2013-03-22 15:01:00,
2013-03-22 09:06:00,69.7,68.2,29.69,SSE,160,6.0,11.0,95,0.00,,,0.00,Wunderground v.1.15,2013-03-22 15:06:00,
2013-03-22 09:11:00,69.8,68.3,29.69,SSE,157,5.0,5.0,95,0.00,,,0.00,Wunderground v.1.15,2013-03-22 15:11:00,
2013-03-22 09:16:00,69.9,68.4,29.70,SSE,162,5.0,11.0,95,0.00,,,0.00,Wunderground v.1.15,2013-03-22 15:16:00,
2013-03-22 09:21:00,70.0,68.5,29.70,SSE,151,4.0,11.0,95,0.00,,,0.00,Wunderground v.1.15,2013-03-22 15:21:00,
2013-03-22 09:26:00,70.1,68.6,29.70,SSE,156,4.0,11.0,95,0.00,,,0.00,Wunderground v.1.15,2013-03-22 15:26:00,
2013-03-22 09:31:00,70.2,68.7,29.70,SE,136,3.0,11.0,95,0.00,,,0.00,Wunderground v.1.15,2013-03-22 15:31:00,
2013-03-22 09:36:00,70.3,68.8,29.70,SSE,156,3.0,11.0,95,0.00,,,0.00,Wunderground v.1.15,2013-03-22 15:36:00,
2013-03-22 09:41:00,70.3,68.8,29.70,SE,129,4.0,11.0,95,0.00,,,0.00,Wunderground v.1.15,2013-03-22 15:41:00,
2013-03-22 09:46:00,70.4,68.9,29.70,SE,138,5.0,11.0,95,0.00,,,0.00,Wunderground v.1.15,2013-03-22 15:46:00,
2013-03-22 09:51:00,70.4,68.9,29.70,SE,144,5.0,11.0,95,0.00,,,0.00,Wunderground v.1.15,2013-03-22 15:51:00,
2013-03-22 09:56:00,70.5,69.0,29.70,SE,145,4.0,11.0,95,0.00,,,0.00,Wunderground v.1.15,2013-03-22 15:56:00,
2013-03-22 10:01:00,70.6,69.1,29.70,SSE,154,4.0,11.0,95,0.00,,,0.00,Wunderground v.1.15,2013-03-22 16:01:00,
2013-03-22 10:06:00,70.8,69.3,29.71,SE,128,3.0,11.0,95,0.00,,,0.00,Wunderground v.1.15,2013-03-22 16:06:00,
2013-03-22 10:16:00,71.0,69.5,29.71,SSE,165,3.0,8.0,95,0.00,,,0.00,Wunderground v.1.15,2013-03-22 16:16:00,
2013-03-22 10:21:00,70.9,69.1,29.71,SE,132,4.0,4.0,94,0.00,,,0.00,Wunderground v.1.15,2013-03-22 16:21:00,
2013-03-22 10:31:00,70.8,69.0,29.70,SSE,153,4.0,8.0,94,0.00,,,0.00,Wunderground v.1.15,2013-03-22 16:31:00,
2013-03-22 10:36:00,70.9,69.1,29.70,SE,142,4.0,8.0,94,0.00,,,0.00,Wunderground v.1.15,2013-03-22 16:36:00,
2013-03-22 10:41:00,71.0,69.2,29.70,SE,146,4.0,8.0,94,0.00,,,0.00,Wunderground v.1.15,2013-03-22 16:41:00,
2013-03-22 10:46:00,71.0,69.2,29.70,SSE,160,4.0,8.0,94,0.00,,,0.00,Wunderground v.1.15,2013-03-22 16:46:00,
2013-03-22 10:51:00,71.1,69.3,29.70,SSE,156,4.0,8.0,94,0.00,,,0.00,Wunderground v.1.15,2013-03-22 16:51:00,
2013-03-22 10:56:00,71.2,69.4,29.70,SE,135,4.0,8.0,94,0.00,,,0.00,Wunderground v.1.15,2013-03-22 16:56:00,
2013-03-22 11:01:00,71.5,69.7,29.70,ESE,111,4.0,8.0,94,0.00,,,0.00,Wunderground v.1.15,2013-03-22 17:01:00,
2013-03-22 11:06:00,71.8,70.0,29.70,SE,142,3.0,8.0,94,0.00,,,0.00,Wunderground v.1.15,2013-03-22 17:06:00,
2013-03-22 11:11:00,72.1,70.3,29.70,SSE,159,4.0,8.0,94,0.00,,,0.00,Wunderground v.1.15,2013-03-22 17:11:00,
2013-03-22 11:16:00,72.2,70.1,29.70,SSE,149,5.0,8.0,93,0.00,,,0.00,Wunderground v.1.15,2013-03-22 17:16:00,
2013-03-22 11:21:00,72.4,70.3,29.70,SSE,153,5.0,5.0,93,0.00,,,0.00,Wunderground v.1.15,2013-03-22 17:21:00,
2013-03-22 11:26:00,72.7,70.6,29.70,SE,130,4.0,8.0,93,0.00,,,0.00,Wunderground v.1.15,2013-03-22 17:26:00,
2013-03-22 11:31:00,72.9,70.8,29.70,South,170,4.0,4.0,93,0.00,,,0.00,Wunderground v.1.15,2013-03-22 17:31:00,
2013-03-22 11:41:00,73.4,70.9,29.70,SE,138,5.0,10.0,92,0.00,,,0.00,Wunderground v.1.15,2013-03-22 17:41:00,
2013-03-22 11:46:00,73.6,71.1,29.69,SE,129,5.0,10.0,92,0.00,,,0.00,Wunderground v.1.15,2013-03-22 17:46:00,
2013-03-22 11:51:00,73.8,71.3,29.69,SSE,167,5.0,8.0,92,0.00,,,0.00,Wunderground v.1.15,2013-03-22 17:51:00,
2013-03-22 11:56:00,73.8,71.0,29.69,SSE,166,5.0,8.0,91,0.00,,,0.00,Wunderground v.1.15,2013-03-22 17:56:00,
2013-03-22 12:01:00,73.8,71.0,29.69,SSE,150,6.0,6.0,91,0.00,,,0.00,Wunderground v.1.15,2013-03-22 18:01:00,
2013-03-22 12:06:00,73.9,71.1,29.69,SSE,156,5.0,12.0,91,0.00,,,0.00,Wunderground v.1.15,2013-03-22 18:06:00,
2013-03-22 12:11:00,73.9,71.1,29.69,SE,128,5.0,5.0,91,0.00,,,0.00,Wunderground v.1.15,2013-03-22 18:11:00,
2013-03-22 12:16:00,73.8,71.0,29.68,SSE,149,5.0,12.0,91,0.00,,,0.00,Wunderground v.1.15,2013-03-22 18:16:00,
2013-03-22 12:21:00,73.8,71.0,29.68,SE,138,5.0,5.0,91,0.00,,,0.00,Wunderground v.1.15,2013-03-22 18:21:00,
2013-03-22 12:26:00,73.8,70.7,29.68,SE,134,6.0,6.0,90,0.00,,,0.00,Wunderground v.1.15,2013-03-22 18:26:00,
2013-03-22 12:31:00,73.7,70.6,29.68,SSE,162,6.0,12.0,90,0.00,,,0.00,Wunderground v.1.15,2013-03-22 18:31:00,
2013-03-22 12:36:00,73.6,70.8,29.68,SSE,148,6.0,12.0,91,0.00,,,0.00,Wunderground v.1.15,2013-03-22 18:36:00,
2013-03-22 12:41:00,73.5,70.7,29.68,SSE,150,6.0,6.0,91,0.00,,,0.00,Wunderground v.1.15,2013-03-22 18:41:00,
2013-03-22 12:56:00,72.7,69.9,29.67,SE,129,6.0,12.0,91,0.00,,,0.00,Wunderground v.1.15,2013-03-22 18:56:00,
2013-03-22 13:01:00,72.4,69.6,29.66,SSE,149,7.0,7.0,91,0.00,,,0.00,Wunderground v.1.15,2013-03-22 19:01:00,
2013-03-22 13:06:00,72.2,69.7,29.66,SE,133,6.0,8.0,92,0.00,,,0.00,Wunderground v.1.15,2013-03-22 19:06:00,
2013-03-22 13:11:00,72.0,69.5,29.66,SSE,150,6.0,9.0,92,0.00,,,0.00,Wunderground v.1.15,2013-03-22 19:11:00,
2013-03-22 13:16:00,71.8,69.3,29.66,SE,134,6.0,9.0,92,0.00,,,0.00,Wunderground v.1.15,2013-03-22 19:16:00,
2013-03-22 13:21:00,71.8,69.7,29.66,SE,142,6.0,6.0,93,0.00,,,0.00,Wunderground v.1.15,2013-03-22 19:21:00,
2013-03-22 13:26:00,71.7,69.6,29.66,SE,143,5.0,9.0,93,0.00,,,0.00,Wunderground v.1.15,2013-03-22 19:26:00,
2013-03-22 13:31:00,71.6,69.5,29.66,SSE,152,6.0,6.0,93,0.00,,,0.00,Wunderground v.1.15,2013-03-22 19:31:00,
2013-03-22 13:41:00,71.6,69.5,29.65,SSE,162,5.0,5.0,93,0.00,,,0.00,Wunderground v.1.15,2013-03-22 19:41:00,
2013-03-22 13:46:00,71.9,69.8,29.65,SSE,150,5.0,9.0,93,0.00,,,0.00,Wunderground v.1.15,2013-03-22 19:46:00,
2013-03-22 13:51:00,72.1,70.0,29.65,SE,146,5.0,9.0,93,0.00,,,0.00,Wunderground v.1.15,2013-03-22 19:51:00,
2013-03-22 13:56:00,72.2,70.1,29.64,SE,145,6.0,9.0,93,0.00,,,0.00,Wunderground v.1.15,2013-03-22 19:56:00,
2013-03-22 14:01:00,72.2,70.1,29.64,SE,136,6.0,6.0,93,0.00,,,0.00,Wunderground v.1.15,2013-03-22 20:01:00,
2013-03-22 14:06:00,72.4,70.3,29.64,SSE,156,5.0,9.0,93,0.00,,,0.00,Wunderground v.1.15,2013-03-22 20:06:00,
2013-03-22 14:11:00,72.6,70.5,29.64,SE,145,5.0,5.0,93,0.00,,,0.00,Wunderground v.1.15,2013-03-22 20:11:00,
2013-03-22 14:16:00,72.7,70.2,29.64,SE,142,5.0,6.0,92,0.00,,,0.00,Wunderground v.1.15,2013-03-22 20:16:00,
2013-03-22 14:21:00,72.7,70.2,29.64,SE,136,5.0,9.0,92,0.00,,,0.00,Wunderground v.1.15,2013-03-22 20:21:00,
2013-03-22 14:26:00,72.6,70.1,29.64,SE,138,7.0,9.0,92,0.00,,,0.00,Wunderground v.1.15,2013-03-22 20:26:00,
2013-03-22 14:31:00,72.7,70.2,29.63,SE,130,7.0,7.0,92,0.00,,,0.00,Wunderground v.1.15,2013-03-22 20:31:00,
2013-03-22 14:36:00,72.8,70.3,29.63,SE,142,6.0,9.0,92,0.00,,,0.00,Wunderground v.1.15,2013-03-22 20:36:00,
2013-03-22 14:41:00,72.8,70.3,29.63,SE,143,7.0,9.0,92,0.00,,,0.00,Wunderground v.1.15,2013-03-22 20:41:00,
2013-03-22 14:46:00,72.9,70.4,29.62,SE,139,8.0,11.0,92,0.00,,,0.00,Wunderground v.1.15,2013-03-22 20:46:00,
2013-03-22 14:51:00,73.0,70.5,29.63,SSE,153,8.0,8.0,92,0.00,,,0.00,Wunderground v.1.15,2013-03-22 20:51:00,
2013-03-22 14:56:00,73.2,70.7,29.63,SE,137,8.0,10.0,92,0.00,,,0.00,Wunderground v.1.15,2013-03-22 20:56:00,
2013-03-22 15:01:00,73.3,70.5,29.63,SSE,163,9.0,9.0,91,0.00,,,0.00,Wunderground v.1.15,2013-03-22 21:01:00,
2013-03-22 15:06:00,73.3,70.5,29.63,SE,125,9.0,13.0,91,0.00,,,0.00,Wunderground v.1.15,2013-03-22 21:06:00,
2013-03-22 15:11:00,73.5,70.7,29.63,ESE,115,9.0,9.0,91,0.00,,,0.00,Wunderground v.1.15,2013-03-22 21:11:00,
2013-03-22 15:16:00,73.7,70.9,29.62,SE,145,8.0,13.0,91,0.00,,,0.00,Wunderground v.1.15,2013-03-22 21:16:00,
2013-03-22 15:21:00,73.7,70.9,29.62,SE,125,9.0,9.0,91,0.00,,,0.00,Wunderground v.1.15,2013-03-22 21:21:00,
2013-03-22 15:36:00,73.9,71.1,29.62,SE,136,9.0,13.0,91,0.00,,,0.00,Wunderground v.1.15,2013-03-22 21:36:00,
2013-03-22 15:46:00,73.8,71.0,29.62,SE,146,8.0,13.0,91,0.00,,,0.00,Wunderground v.1.15,2013-03-22 21:46:00,
2013-03-22 15:51:00,73.9,71.1,29.62,SE,136,8.0,8.0,91,0.00,,,0.00,Wunderground v.1.15,2013-03-22 21:51:00,
2013-03-22 15:56:00,74.2,71.4,29.62,SSE,151,7.0,13.0,91,0.00,,,0.00,Wunderground v.1.15,2013-03-22 21:56:00,
2013-03-22 16:01:00,74.4,71.3,29.62,SE,134,7.0,13.0,90,0.00,,,0.00,Wunderground v.1.15,2013-03-22 22:01:00,
2013-03-22 16:06:00,74.3,71.2,29.62,ESE,120,8.0,13.0,90,0.00,,,0.00,Wunderground v.1.15,2013-03-22 22:06:00,
2013-03-22 16:11:00,74.2,71.1,29.62,SE,126,9.0,9.0,90,0.00,,,0.00,Wunderground v.1.15,2013-03-22 22:11:00,
2013-03-22 16:16:00,74.0,70.9,29.62,SE,135,9.0,13.0,90,0.00,,,0.00,Wunderground v.1.15,2013-03-22 22:16:00,
2013-03-22 16:21:00,73.7,70.6,29.62,SSE,160,9.0,9.0,90,0.00,,,0.00,Wunderground v.1.15,2013-03-22 22:21:00,
2013-03-22 16:26:00,73.5,70.4,29.62,SE,145,9.0,10.0,90,0.00,,,0.00,Wunderground v.1.15,2013-03-22 22:26:00,
2013-03-22 16:31:00,73.4,70.6,29.62,SE,135,9.0,9.0,91,0.00,,,0.00,Wunderground v.1.15,2013-03-22 22:31:00,
2013-03-22 16:36:00,73.3,70.5,29.62,SSE,148,8.0,13.0,91,0.00,,,0.00,Wunderground v.1.15,2013-03-22 22:36:00,
2013-03-22 16:41:00,73.3,70.5,29.62,SSE,165,8.0,13.0,91,0.00,,,0.00,Wunderground v.1.15,2013-03-22 22:41:00,
2013-03-22 16:46:00,73.3,70.5,29.62,SE,143,7.0,13.0,91,0.00,,,0.00,Wunderground v.1.15,2013-03-22 22:46:00,
2013-03-22 16:51:00,73.3,70.5,29.62,SSE,150,6.0,6.0,91,0.00,,,0.00,Wunderground v.1.15,2013-03-22 22:51:00,
2013-03-22 16:56:00,73.2,70.4,29.62,SE,126,7.0,7.0,91,0.00,,,0.00,Wunderground v.1.15,2013-03-22 22:56:00,
2013-03-22 17:01:00,73.1,70.6,29.62,East,99,7.0,7.0,92,0.00,,,0.00,Wunderground v.1.15,2013-03-22 23:01:00,
2013-03-22 17:11:00,72.9,70.4,29.63,SSE,153,6.0,13.0,92,0.00,,,0.00,Wunderground v.1.15,2013-03-22 23:11:00,
2013-03-22 17:16:00,72.8,70.3,29.63,ESE,123,6.0,13.0,92,0.00,,,0.00,Wunderground v.1.15,2013-03-22 23:16:00,
2013-03-22 17:21:00,72.8,70.3,29.63,SSE,163,7.0,7.0,92,0.00,,,0.00,Wunderground v.1.15,2013-03-22 23:21:00,
2013-03-22 17:26:00,72.7,70.2,29.63,SSE,148,7.0,10.0,92,0.00,,,0.00,Wunderground v.1.15,2013-03-22 23:26:00,
2013-03-22 17:31:00,72.6,70.1,29.62,SE,127,8.0,13.0,92,0.00,,,0.00,Wunderground v.1.15,2013-03-22 23:31:00,
2013-03-22 17:36:00,72.4,69.9,29.63,SE,130,7.0,13.0,92,0.00,,,0.00,Wunderground v.1.15,2013-03-22 23:36:00,
2013-03-22 17:41:00,72.2,69.7,29.63,ESE,110,8.0,8.0,92,0.00,,,0.00,Wunderground v.1.15,2013-03-22 23:41:00,
2013-03-22 17:46:00,72.0,69.9,29.63,ESE,106,9.0,11.0,93,0.00,,,0.00,Wunderground v.1.15,2013-03-22 23:46:00,
2013-03-22 17:51:00,71.8,69.7,29.63,ESE,107,9.0,13.0,93,0.00,,,0.00,Wunderground v.1.15,2013-03-22 23:51:00,
2013-03-22 18:01:00,71.6,69.5,29.63,East,92,7.0,7.0,93,0.00,,,0.00,Wunderground v.1.15,2013-03-23 00:01:00,
2013-03-22 18:06:00,71.4,69.3,29.63,SSE,162,8.0,8.0,93,0.00,,,0.00,Wunderground v.1.15,2013-03-23 00:06:00,
2013-03-22 18:11:00,71.2,69.1,29.63,SE,129,7.0,15.0,93,0.00,,,0.00,Wunderground v.1.15,2013-03-23 00:11:00,
2013-03-22 18:16:00,71.2,69.4,29.63,SE,127,7.0,15.0,94,0.00,,,0.00,Wunderground v.1.15,2013-03-23 00:16:00,
2013-03-22 18:31:00,70.9,69.1,29.64,SE,125,8.0,8.0,94,0.00,,,0.00,Wunderground v.1.15,2013-03-23 00:31:00,
2013-03-22 18:36:00,70.9,69.1,29.64,ESE,103,7.0,15.0,94,0.00,,,0.00,Wunderground v.1.15,2013-03-23 00:36:00,
2013-03-22 18:41:00,70.9,69.1,29.64,SE,141,7.0,15.0,94,0.00,,,0.00,Wunderground v.1.15,2013-03-23 00:41:00,
2013-03-22 18:51:00,70.7,68.9,29.64,ESE,113,8.0,15.0,94,0.00,,,0.00,Wunderground v.1.15,2013-03-23 00:51:00,
2013-03-22 18:56:00,70.7,68.9,29.65,SE,133,8.0,15.0,94,0.00,,,0.00,Wunderground v.1.15,2013-03-23 00:56:00,
2013-03-22 19:01:00,70.7,69.2,29.65,ESE,106,8.0,15.0,95,0.00,,,0.00,Wunderground v.1.15,2013-03-23 01:01:00,
2013-03-22 19:07:00,70.6,69.1,29.65,ESE,122,8.0,15.0,95,0.00,,,0.00,Wunderground v.1.15,2013-03-23 01:07:00,
2013-03-22 19:16:00,70.6,69.1,29.65,ESE,102,8.0,13.0,95,0.00,,,0.00,Wunderground v.1.15,2013-03-23 01:16:00,
2013-03-22 19:21:00,70.6,69.1,29.65,ESE,115,8.0,13.0,95,0.00,,,0.00,Wunderground v.1.15,2013-03-23 01:21:00,
2013-03-22 19:26:00,70.6,69.1,29.65,ESE,118,8.0,13.0,95,0.00,,,0.00,Wunderground v.1.15,2013-03-23 01:26:00,
2013-03-22 19:31:00,70.6,69.1,29.65,SE,124,8.0,8.0,95,0.00,,,0.00,Wunderground v.1.15,2013-03-23 01:31:00,
2013-03-22 19:41:00,70.7,69.2,29.65,SE,130,9.0,9.0,95,0.00,,,0.00,Wunderground v.1.15,2013-03-23 01:41:00,
2013-03-22 19:46:00,70.7,69.2,29.66,ESE,121,10.0,10.0,95,0.00,,,0.00,Wunderground v.1.15,2013-03-23 01:46:00,
2013-03-22 19:56:00,70.8,69.3,29.65,SE,129,10.0,12.0,95,0.00,,,0.00,Wunderground v.1.15,2013-03-23 01:56:00,
2013-03-22 20:01:00,70.8,69.3,29.66,ESE,115,10.0,13.0,95,0.00,,,0.00,Wunderground v.1.15,2013-03-23 02:01:00,
2013-03-22 20:06:00,70.9,69.4,29.66,SE,133,11.0,15.0,95,0.00,,,0.00,Wunderground v.1.15,2013-03-23 02:06:00,
2013-03-22 20:16:00,71.0,69.5,29.66,ESE,119,10.0,15.0,95,0.00,,,0.00,Wunderground v.1.15,2013-03-23 02:16:00,
2013-03-22 20:21:00,70.9,69.4,29.66,SE,143,9.0,9.0,95,0.00,,,0.00,Wunderground v.1.15,2013-03-23 02:21:00,
2013-03-22 20:26:00,70.9,69.4,29.66,ESE,122,9.0,15.0,95,0.00,,,0.00,Wunderground v.1.15,2013-03-23 02:26:00,
2013-03-22 20:31:00,70.9,69.4,29.66,ESE,120,9.0,9.0,95,0.00,,,0.00,Wunderground v.1.15,2013-03-23 02:31:00,
2013-03-22 20:36:00,70.9,69.4,29.66,SE,141,10.0,10.0,95,0.00,,,0.00,Wunderground v.1.15,2013-03-23 02:36:00,
2013-03-22 20:46:00,70.9,69.4,29.66,SE,141,10.0,15.0,95,0.00,,,0.00,Wunderground v.1.15,2013-03-23 02:46:00,
2013-03-22 20:51:00,70.9,69.4,29.66,ESE,122,10.0,15.0,95,0.00,,,0.00,Wunderground v.1.15,2013-03-23 02:51:00,
2013-03-22 20:56:00,70.9,69.7,29.66,SE,125,10.0,15.0,96,0.00,,,0.00,Wunderground v.1.15,2013-03-23 02:56:00,
2013-03-22 21:01:00,70.9,69.7,29.66,ESE,103,9.0,15.0,96,0.00,,,0.00,Wunderground v.1.15,2013-03-23 03:01:00,
2013-03-22 21:06:00,71.0,69.8,29.66,SSE,149,9.0,16.0,96,0.00,,,0.00,Wunderground v.1.15,2013-03-23 03:06:00,
2013-03-22 21:11:00,71.0,69.8,29.67,SE,143,9.0,9.0,96,0.00,,,0.00,Wunderground v.1.15,2013-03-23 03:11:00,
2013-03-22 21:16:00,71.1,69.9,29.66,ESE,122,9.0,16.0,96,0.00,,,0.00,Wunderground v.1.15,2013-03-23 03:16:00,
2013-03-22 21:21:00,71.1,69.9,29.67,East,89,10.0,10.0,96,0.00,,,0.00,Wunderground v.1.15,2013-03-23 03:21:00,
2013-03-22 21:26:00,71.1,69.9,29.67,SE,143,10.0,16.0,96,0.00,,,0.00,Wunderground v.1.15,2013-03-23 03:26:00,
2013-03-22 21:31:00,71.1,69.9,29.67,East,100,10.0,16.0,96,0.00,,,0.00,Wunderground v.1.15,2013-03-23 03:31:00,
2013-03-22 21:36:00,71.1,69.9,29.67,ESE,109,10.0,16.0,96,0.00,,,0.00,Wunderground v.1.15,2013-03-23 03:36:00,
2013-03-22 21:41:00,71.1,69.9,29.67,ESE,108,10.0,16.0,96,0.00,,,0.00,Wunderground v.1.15,2013-03-23 03:41:00,
2013-03-22 21:51:00,71.1,69.9,29.66,SSE,156,10.0,10.0,96,0.00,,,0.00,Wunderground v.1.15,2013-03-23 03:51:00,
2013-03-22 21:56:00,71.0,69.8,29.66,SE,141,11.0,11.0,96,0.00,,,0.00,Wunderground v.1.15,2013-03-23 03:56:00,
2013-03-22 22:01:00,70.9,69.7,29.66,SSE,148,11.0,16.0,96,0.00,,,0.00,Wunderground v.1.15,2013-03-23 04:01:00,
2013-03-22 22:06:00,70.9,69.7,29.66,ESE,105,10.0,17.0,96,0.00,,,0.00,Wunderground v.1.15,2013-03-23 04:06:00,
2013-03-22 22:11:00,70.9,69.7,29.66,ESE,120,10.0,17.0,96,0.00,,,0.00,Wunderground v.1.15,2013-03-23 04:11:00,
2013-03-22 22:16:00,70.9,69.7,29.67,ESE,111,11.0,17.0,96,0.00,,,0.00,Wunderground v.1.15,2013-03-23 04:16:00,
2013-03-22 22:26:00,70.9,69.7,29.67,ESE,108,11.0,12.0,96,0.00,,,0.00,Wunderground v.1.15,2013-03-23 04:26:00,
2013-03-22 22:31:00,70.9,69.7,29.67,East,99,12.0,12.0,96,0.00,,,0.00,Wunderground v.1.15,2013-03-23 04:31:00,
2013-03-22 22:41:00,70.9,69.7,29.67,SE,126,13.0,13.0,96,0.00,,,0.00,Wunderground v.1.15,2013-03-23 04:41:00,
2013-03-22 22:46:00,70.8,69.6,29.67,ESE,111,12.0,14.0,96,0.00,,,0.00,Wunderground v.1.15,2013-03-23 04:46:00,
2013-03-22 22:51:00,70.8,69.6,29.67,East,99,12.0,17.0,96,0.00,,,0.00,Wunderground v.1.15,2013-03-23 04:51:00,
2013-03-22 22:56:00,70.8,69.6,29.67,East,86,12.0,17.0,96,0.00,,,0.00,Wunderground v.1.15,2013-03-23 04:56:00,
2013-03-22 23:01:00,70.8,69.6,29.67,ESE,121,11.0,17.0,96,0.00,,,0.00,Wunderground v.1.15,2013-03-23 05:01:00,
2013-03-22 23:06:00,70.8,69.9,29.67,ESE,111,11.0,17.0,97,0.00,,,0.00,Wunderground v.1.15,2013-03-23 05:06:00,
2013-03-22 23:11:00,70.7,69.8,29.67,ESE,118,12.0,16.0,97,0.00,,,0.00,Wunderground v.1.15,2013-03-23 05:11:00,
2013-03-22 23:16:00,70.7,69.5,29.67,ESE,104,12.0,16.0,96,0.00,,,0.00,Wunderground v.1.15,2013-03-23 05:16:00,
2013-03-22 23:21:00,70.6,69.7,29.67,ESE,115,11.0,11.0,97,0.00,,,0.00,Wunderground v.1.15,2013-03-23 05:21:00,
2013-03-22 23:26:00,70.5,69.6,29.67,ESE,120,11.0,16.0,97,0.00,,,0.00,Wunderground v.1.15,2013-03-23 05:26:00,
2013-03-22 23:36:00,70.4,69.5,29.67,East,100,11.0,16.0,97,0.00,,,0.00,Wunderground v.1.15,2013-03-23 05:36:00,
2013-03-22 23:46:00,70.4,69.5,29.67,ESE,114,10.0,16.0,97,0.00,,,0.00,Wunderground v.1.15,2013-03-23 05:46:00,
2013-03-22 23:51:00,70.4,69.5,29.66,ESE,112,10.0,16.0,97,0.00,,,0.00,Wunderground v.1.15,2013-03-23 05:51:00,
2013-03-22 23:56:00,70.4,69.5,29.66,SE,130,10.0,16.0,97,0.00,,,0.00,Wunderground v.1.15,2013-03-23 05:56:00,